Flag for Canada Weather past 2 weeks in Lethbridge, Alberta, Canada

Now
52 °F

Passing clouds.


Feels Like: 49 °F
Forecast: 43 / 56 °F
Wind: 8 mph from South

Location: Lethbridge

Current Time: Oct 20, 2014 at 8:29:42 PM

Latest Report: Oct 20, 2014 at 8:00 PM


Visibility: 15 mi

Pressure: 29.71 "Hg

Humidity: 47%

Dew point: 32 °F

Location of LethbridgeLocation

Historic Weather in Lethbridge — Graph

°F

Lethbridge temperature yesterday

Maximum temperature yesterday: 72 °F (at 3:00 PM)
Minimum temperature yesterday: 37 °F (at 7:00 AM)
Average temperature yesterday: 54 °F

Past Weeks' High & Low Weather Summary

 TemperatureHumidityPressure
High77 °F (Oct 20, 1:00 PM)100% (Oct 16, 9:00 AM)30.21 "Hg (Oct 16, 9:00 AM)
Low30 °F (Oct 17, 4:00 AM)14% (Oct 20, 2:00 PM)29.57 "Hg (Oct 15, 4:00 PM)
Average52 °F60%29.89 "Hg
* Reported Oct 5 7:00 PM — Oct 20 7:00 PM, Lethbridge, Weather by CustomWeather, © 2014

Note: Actual official high and low records may vary slightly from our data, if they occured in-between our weather recording intervals... More about our weather records

Advertising

Lethbridge weather history for previous 24 hours

 ConditionsComfort  
Time TempWeatherWind HumidityBarometerVisibility
7:00 PM
Oct 20
54 °FPassing clouds.12 mph41%29.70 "Hg40 mi
6:00 PM64 °FPassing clouds.13 mph28%29.67 "Hg40 mi
5:00 PM73 °FPassing clouds.20 mph17%29.66 "Hg40 mi
4:00 PM77 °FPassing clouds.18 mph14%29.65 "Hg40 mi
3:00 PM77 °FPassing clouds.23 mph15%29.65 "Hg40 mi
2:00 PM77 °FPassing clouds.25 mph14%29.66 "Hg40 mi
1:00 PM77 °FPassing clouds.15 mph15%29.68 "Hg40 mi
12:00 PM75 °FPassing clouds.22 mph21%29.70 "Hg40 mi
11:00 AM70 °FPassing clouds.15 mph29%29.72 "Hg40 mi
10:00 AM59 °FSunny.15 mph42%29.75 "Hg40 mi
9:00 AM50 °FSunny.15 mph54%29.77 "Hg40 mi
8:00 AM41 °FClear.6 mph70%29.79 "Hg40 mi
7:00 AM43 °FClear.8 mph71%29.78 "Hg15 mi
6:00 AM48 °FClear.18 mph58%29.75 "Hg15 mi
5:00 AM41 °FClear.6 mph70%29.77 "Hg9 mi
4:00 AM45 °FClear.9 mph61%29.75 "Hg9 mi
3:00 AM48 °FClear.20 mph58%29.75 "Hg9 mi
2:00 AM45 °FClear.8 mph71%29.76 "Hg9 mi
1:00 AM45 °FClear.6 mph66%29.78 "Hg9 mi
12:00 AM45 °FClear.10 mph71%29.80 "Hg9 mi
11:00 PM
Oct 19
46 °FClear.20 mph66%29.80 "Hg9 mi
9:00 PM50 °FPassing clouds.17 mph62%29.85 "Hg15 mi
8:00 PM46 °FPassing clouds.12 mph76%29.87 "Hg40 mi
Weather by CustomWeather, © 2014

See weather overviewHow to use our weather pages